Find Starlink 30838

NORAD ID: 58211 Int'l Des: 2023-170 Owner: SPXS Country: US Constellation: starlink operational
LEOCIRCULAR

現在のビュー

3D地球を読み込み中...

About Starlink 30838

Starlink 30838 (NORAD 58211) is a starlink constellation satellite (v2 mini) launched Nov 4, 2023 by SPXS of US. It operates in LEO, CIRCULAR orbit with a mass of 730.00 kg.

Starlink 30838について

説明を読み込み中...

次回通過

Passes for default location (London). Set your location on the main map for personalized predictions.

高度履歴

Loading altitude history...

軌道要素

1 58211U 23170F 26165.27904516 -.00000577 00000-0 -11435-4 0 9993
2 58211 43.0090 8.5642 0001304 254.1575 105.9133 15.27570884145073
Epoch: Jun 14, 2026 • Age: 37 hours

現在のステータス

高度 491.2 km
速度 7.62 km/s
衛星直下点 -32.21°S, 20.96°E
打ち上げ日 Nov 4, 2023
運用期間 2.6 years
タイプ internet

技術仕様

分類 Payload
質量 730.00 kg
乾燥質量 700.00 kg
総質量 730.00 kg
長さ 0.30 m
直径 4.10 m
スパン 29.00 m
形状 Box + pan
製造者 SPXS
バスタイプ Starlink V2M
フェーズステータス In Orbit
所有者/国 SPXS/US

Most Searched